Weather in Spask-Pyazanskiy

Russia / Ryazan Oblast     54°24′25″N   40°22′35″E
temp.,
°C
wind,
m/s
gust,
m/s
humid.,
%
clouds,
%
prec.,
mm/h
press.,
hPa
HPBL,
m
29 june, wed
wed2900:00+11ene33700 0.0 102236
03:00+10ne33710 0.0 102231
06:00+12nne24720 0.0 1023128
09:00+17ne35530 0.0 1022728
12:00+20ene34421 0.0 10221808
15:00+21ese34401 0.0 10201662
18:00+20sse33575 0.0 1020422
21:00+14s22630 0.0 101914
30 june, thu
thu3000:00+12se22700 0.0 102012
03:00+10se11805 0.0 101910
06:00+13n1273100 0.0 101971
09:00+18n24555 0.0 1018698
12:00+22nnw35395 0.0 10172082
15:00+23nnw46369 0.0 10162523
18:00+22nnw47495 0.0 1015432
21:00+16nnw486415 0.0 1016123
1 july, fri
fri100:00+16nnw38624 0.0 1017164
03:00+11nnw37764 0.0 1017110
06:00+13nne36785 0.0 1018161
09:00+18ne46523 0.0 10191088
12:00+21ne57395 0.0 10192217
15:00+21ne58364 0.0 10192420
18:00+20ene46514 0.0 1019651
21:00+13ne22642 0.0 102011
2 july, sat
sat200:00+11nnw11665 0.0 102110
03:00+10nw33701 0.0 102125
06:00+13wnw257541 0.0 1020135
09:00+20wnw4554100 0.0 1019619
12:00+23wnw4544100 0.0 10181575
15:00+23w465610 0.1 10171166
18:00+19nw41092100 4.1 1015644
21:00+16w34975 4.8 101561
3 july, sun
sun300:00+15nnw34974 0.8 101562
03:00+15n37972 0.8 1015134
06:00+16ene249742 0.0 1016155
09:00+20ene22777 0.0 1017584
12:00+23e226114 0.3 10171037
15:00+23sse1162100 1.2 1017638
18:00+23wsw127086 0.1 1017193
21:00+20s117250 0.1 101811